Radiation Dose at Monitoring Post of Fukushima Daini Nuclear Power Station
Date,Time,MP-1(microSv/h),MP-2(microSv/h),MP-3(microSv/h),MP-4(microSv/h),MP-5(microSv/h),MP-6(microSv/h),MP-7(microSv/h),Wind Direction,Wind Velocity(m/s),Rain
2019/07/17,00:00,0.184,0.165,0.271,0.259,0.263,0.136,0.087,northwest,2.2,Yes
2019/07/17,00:10,0.182,0.166,0.275,0.256,0.261,0.138,0.088,west-northwest,1.5,Yes
2019/07/17,00:20,0.185,0.167,0.272,0.258,0.263,0.137,0.087,northwest,2.3,No
2019/07/17,00:30,0.182,0.166,0.273,0.256,0.262,0.136,0.087,north-northwest,2.4,Yes
2019/07/17,00:40,0.183,0.165,0.273,0.258,0.262,0.138,0.087,north-northwest,2.7,Yes
2019/07/17,00:50,0.183,0.165,0.272,0.255,0.262,0.136,0.086,north-northwest,3.0,No
2019/07/17,01:00,0.182,0.166,0.273,0.257,0.260,0.137,0.087,north-northwest,3.0,No
2019/07/17,01:10,0.183,0.165,0.270,0.256,0.263,0.137,0.086,north-northwest,4.1,No
2019/07/17,01:20,0.181,0.165,0.274,0.255,0.260,0.137,0.086,north,3.6,No
2019/07/17,01:30,0.182,0.165,0.271,0.256,0.261,0.137,0.087,north,2.9,No
2019/07/17,01:40,0.181,0.165,0.272,0.255,0.264,0.136,0.086,north-northwest,1.9,No
2019/07/17,01:50,0.180,0.164,0.272,0.256,0.260,0.135,0.087,north,4.4,Yes
2019/07/17,02:00,0.183,0.164,0.271,0.256,0.263,0.136,0.086,north-northwest,5.1,Yes
2019/07/17,02:10,0.180,0.165,0.273,0.256,0.262,0.135,0.086,north-northwest,6.2,Yes
2019/07/17,02:20,0.183,0.165,0.270,0.256,0.260,0.137,0.086,north-northwest,6.2,No
2019/07/17,02:30,0.181,0.164,0.274,0.254,0.262,0.136,0.086,north-northwest,6.0,No
2019/07/17,02:40,0.182,0.164,0.271,0.257,0.260,0.135,0.085,north-northwest,5.2,No
2019/07/17,02:50,0.182,0.164,0.273,0.255,0.262,0.136,0.086,north-northwest,4.4,No
2019/07/17,03:00,0.179,0.164,0.272,0.255,0.260,0.135,0.086,north-northwest,4.5,No
2019/07/17,03:10,0.181,0.165,0.269,0.257,0.261,0.137,0.085,northwest,5.1,No
2019/07/17,03:20,0.180,0.163,0.273,0.254,0.260,0.135,0.085,north-northwest,6.2,No
2019/07/17,03:30,0.181,0.164,0.269,0.257,0.260,0.134,0.085,northwest,5.6,Yes
2019/07/17,03:40,0.181,0.164,0.273,0.255,0.263,0.136,0.085,north-northwest,6.8,Yes
2019/07/17,03:50,0.181,0.164,0.272,0.255,0.259,0.135,0.085,north-northwest,6.6,Yes
2019/07/17,04:00,0.181,0.165,0.272,0.258,0.261,0.136,0.085,north-northwest,6.2,Yes
2019/07/17,04:10,0.181,0.165,0.272,0.254,0.261,0.136,0.086,north-northwest,7.0,Yes
2019/07/17,04:20,0.183,0.166,0.271,0.257,0.260,0.136,0.086,north-northwest,6.7,Yes
2019/07/17,04:30,0.181,0.166,0.273,0.255,0.263,0.137,0.087,north-northwest,6.8,Yes
2019/07/17,04:40,0.184,0.168,0.272,0.257,0.259,0.137,0.088,north-northwest,5.9,Yes
2019/07/17,04:50,0.184,0.167,0.274,0.256,0.262,0.137,0.088,north-northwest,7.6,Yes
2019/07/17,05:00,0.183,0.168,0.271,0.255,0.261,0.138,0.088,north-northwest,7.0,Yes
2019/07/17,05:10,0.183,0.168,0.271,0.255,0.262,0.137,0.088,north-northwest,6.2,Yes
2019/07/17,05:20,0.183,0.168,0.270,0.254,0.262,0.138,0.089,north-northwest,6.6,Yes
2019/07/17,05:30,0.182,0.167,0.268,0.252,0.259,0.137,0.088,north-northwest,6.2,Yes
2019/07/17,05:40,0.175,0.168,0.266,0.247,0.262,0.136,0.089,north-northwest,5.7,Yes
2019/07/17,05:50,0.180,0.168,0.269,0.249,0.259,0.138,0.090,northwest,4.2,Yes
2019/07/17,06:00,0.180,0.168,0.270,0.249,0.264,0.137,0.092,north-northwest,2.8,Yes
2019/07/17,06:10,0.180,0.168,0.270,0.252,0.262,0.139,0.093,north-northwest,4.3,Yes
2019/07/17,06:20,0.182,0.168,0.269,0.252,0.264,0.138,0.091,northwest,3.8,Yes
2019/07/17,06:30,0.180,0.168,0.267,0.252,0.265,0.137,0.091,north-northwest,4.4,No
2019/07/17,06:40,0.181,0.165,0.269,0.253,0.261,0.137,0.090,north-northwest,4.8,No
2019/07/17,06:50,0.179,0.165,0.267,0.251,0.263,0.135,0.089,north-northwest,5.0,No
2019/07/17,07:00,0.180,0.163,0.269,0.253,0.261,0.136,0.089,north-northwest,3.8,No
2019/07/17,07:10,0.178,0.165,0.268,0.251,0.261,0.135,0.087,north-northwest,4.9,No
2019/07/17,07:20,0.179,0.165,0.266,0.251,0.261,0.133,0.087,north-northwest,4.8,No
2019/07/17,07:30,0.179,0.163,0.268,0.253,0.258,0.135,0.086,northwest,5.3,No
2019/07/17,07:40,0.178,0.163,0.266,0.251,0.261,0.133,0.087,north-northwest,4.3,No
2019/07/17,07:50,0.178,0.162,0.268,0.252,0.260,0.134,0.086,north-northwest,4.1,No
2019/07/17,08:00,0.178,0.162,0.267,0.253,0.258,0.133,0.085,north-northwest,4.0,No
2019/07/17,08:10,0.177,0.163,0.266,0.249,0.260,0.132,0.086,north-northwest,3.3,No
2019/07/17,08:20,0.179,0.163,0.269,0.252,0.260,0.133,0.086,north-northwest,4.2,Yes
2019/07/17,08:30,0.179,0.164,0.267,0.252,0.258,0.134,0.085,northwest,4.8,No
2019/07/17,08:40,0.178,0.164,0.268,0.250,0.260,0.134,0.086,northwest,5.3,No
2019/07/17,08:50,0.179,0.162,0.269,0.252,0.260,0.133,0.086,northwest,6.0,No
2019/07/17,09:00,0.178,0.164,0.267,0.251,0.256,0.133,0.084,north-northwest,5.5,No
2019/07/17,09:10,0.177,0.162,0.269,0.251,0.260,0.133,0.085,northwest,5.1,No
2019/07/17,09:20,0.179,0.162,0.267,0.253,0.260,0.131,0.085,northwest,4.9,No
2019/07/17,09:30,0.178,0.164,0.267,0.252,0.258,0.133,0.085,north-northwest,3.8,No
2019/07/17,09:40,0.177,0.163,0.269,0.250,0.256,0.133,0.084,north-northwest,3.0,No
2019/07/17,09:50,0.178,0.162,0.268,0.253,0.260,0.133,0.084,north-northwest,3.2,No
2019/07/17,10:00,0.179,0.161,0.265,0.252,0.258,0.133,0.084,north,2.4,No
2019/07/17,10:10,0.178,0.163,0.268,0.251,0.259,0.132,0.085,north,2.7,No
2019/07/17,10:20,0.177,0.163,0.269,0.249,0.258,0.133,0.084,north,3.2,No
2019/07/17,10:30,0.177,0.162,0.267,0.249,0.257,0.133,0.084,north-northeast,3.3,No
2019/07/17,10:40,0.179,0.162,0.267,0.250,0.258,0.132,0.084,northeast,4.2,No
2019/07/17,10:50,0.179,0.161,0.266,0.250,0.257,0.133,0.085,north-northeast,4.1,No
2019/07/17,11:00,0.180,0.162,0.265,0.250,0.257,0.134,0.084,northeast,4.0,No
2019/07/17,11:10,0.178,0.160,0.264,0.250,0.258,0.134,0.084,northeast,4.6,No
2019/07/17,11:20,0.177,0.163,0.269,0.251,0.257,0.134,0.083,northeast,5.6,No
2019/07/17,11:30,0.175,0.163,0.268,0.250,0.258,0.134,0.084,northeast,5.1,No
2019/07/17,11:40,0.179,0.163,0.268,0.251,0.258,0.134,0.084,northeast,5.7,No
2019/07/17,11:50,0.181,0.162,0.267,0.255,0.259,0.133,0.084,north-northeast,5.2,No
2019/07/17,12:00,0.178,0.161,0.266,0.254,0.259,0.133,0.085,northeast,4.8,No
2019/07/17,12:10,0.179,0.162,0.271,0.253,0.262,0.133,0.085,northeast,4.1,No
2019/07/17,12:20,0.181,0.165,0.271,0.250,0.261,0.134,0.085,north-northeast,4.0,No
2019/07/17,12:30,0.180,0.163,0.268,0.254,0.260,0.134,0.084,northeast,2.9,No
2019/07/17,12:40,0.177,0.161,0.266,0.255,0.259,0.134,0.084,north-northeast,2.5,No
2019/07/17,12:50,0.179,0.162,0.270,0.253,0.259,0.133,0.084,northeast,3.1,No
2019/07/17,13:00,0.180,0.164,0.270,0.252,0.259,0.134,0.085,northeast,2.4,No
2019/07/17,13:10,0.179,0.162,0.268,0.254,0.263,0.135,0.086,northeast,1.6,No
2019/07/17,13:20,0.179,0.163,0.269,0.255,0.261,0.134,0.084,north,2.2,No
2019/07/17,13:30,0.180,0.164,0.271,0.252,0.258,0.134,0.085,north,2.8,No
2019/07/17,13:40,0.180,0.163,0.270,0.254,0.264,0.134,0.085,north,2.8,No
2019/07/17,13:50,0.179,0.163,0.270,0.256,0.262,0.135,0.085,north-northeast,2.6,No
2019/07/17,14:00,0.181,0.164,0.271,0.254,0.259,0.135,0.085,north,2.6,No
2019/07/17,14:10,0.178,0.163,0.269,0.254,0.259,0.133,0.085,north,2.5,No
2019/07/17,14:20,0.179,0.163,0.270,0.255,0.264,0.134,0.084,north-northeast,2.0,No
2019/07/17,14:30,0.181,0.164,0.272,0.254,0.262,0.135,0.084,north-northeast,2.2,No
2019/07/17,14:40,0.179,0.163,0.268,0.254,0.259,0.134,0.084,north,1.5,No
2019/07/17,14:50,0.180,0.163,0.269,0.257,0.260,0.133,0.085,north-northwest,1.0,No
2019/07/17,15:00,0.181,0.164,0.271,0.253,0.263,0.134,0.084,northwest,1.4,No
2019/07/17,15:10,0.179,0.162,0.269,0.251,0.260,0.135,0.085,northwest,1.2,No
2019/07/17,15:20,0.178,0.162,0.268,0.255,0.258,0.134,0.086,west-northwest,0.8,No
2019/07/17,15:30,0.182,0.164,0.271,0.255,0.258,0.133,0.085,northwest,1.1,No
2019/07/17,15:40,0.181,0.164,0.270,0.253,0.258,0.134,0.085,west-northwest,1.3,No
2019/07/17,15:50,0.178,0.163,0.267,0.252,0.257,0.135,0.085,west-northwest,1.1,No
2019/07/17,16:00,0.178,0.162,0.267,0.255,0.257,0.134,0.085,west-northwest,0.9,No
2019/07/17,16:10,0.178,0.162,0.271,0.256,0.260,0.134,0.084,northwest,0.6,No
2019/07/17,16:20,0.178,0.164,0.270,0.254,0.260,0.134,0.084,northeast,0.8,No
2019/07/17,16:30,0.178,0.163,0.268,0.254,0.260,0.134,0.085,-,CALM,No
2019/07/17,16:40,0.180,0.163,0.268,0.256,0.260,0.134,0.084,northeast,1.5,No
2019/07/17,16:50,0.180,0.164,0.271,0.254,0.260,0.135,0.085,northeast,1.7,No
2019/07/17,17:00,0.179,0.164,0.272,0.252,0.259,0.134,0.085,northeast,2.2,No
2019/07/17,17:10,0.181,0.162,0.270,0.256,0.261,0.135,0.085,northeast,2.7,No
2019/07/17,17:20,0.180,0.164,0.272,0.255,0.264,0.134,0.084,east-northeast,1.6,No
2019/07/17,17:30,0.179,0.165,0.270,0.252,0.262,0.136,0.085,east-northeast,0.9,No
2019/07/17,17:40,0.180,0.163,0.269,0.256,0.260,0.134,0.085,east-northeast,0.7,No
2019/07/17,17:50,0.181,0.164,0.272,0.254,0.263,0.134,0.085,northeast,0.7,No
2019/07/17,18:00,0.181,0.164,0.271,0.252,0.262,0.135,0.085,northeast,0.7,No
2019/07/17,18:10,0.181,0.164,0.268,0.256,0.260,0.135,0.085,east,0.6,No
2019/07/17,18:20,0.181,0.164,0.272,0.254,0.258,0.134,0.084,-,CALM,No
2019/07/17,18:30,0.179,0.163,0.271,0.255,0.263,0.135,0.085,-,CALM,No
2019/07/17,18:40,0.180,0.164,0.269,0.256,0.263,0.135,0.085,-,CALM,No
2019/07/17,18:50,0.181,0.164,0.272,0.255,0.259,0.134,0.085,-,CALM,No
2019/07/17,19:00,0.179,0.163,0.269,0.255,0.263,0.135,0.086,northeast,0.6,No
2019/07/17,19:10,0.179,0.164,0.269,0.256,0.263,0.136,0.085,northeast,1.0,No
2019/07/17,19:20,0.181,0.164,0.271,0.254,0.260,0.134,0.086,east-northeast,0.6,No
2019/07/17,19:30,0.179,0.164,0.269,0.256,0.263,0.136,0.085,east-northeast,0.6,No
2019/07/17,19:40,0.180,0.163,0.271,0.255,0.262,0.135,0.085,-,CALM,No
2019/07/17,19:50,0.181,0.164,0.270,0.255,0.261,0.135,0.084,east,0.9,No
2019/07/17,20:00,0.179,0.164,0.271,0.255,0.262,0.136,0.085,-,CALM,No
2019/07/17,20:10,0.180,0.163,0.273,0.253,0.260,0.134,0.085,-,CALM,No
2019/07/17,20:20,0.180,0.164,0.270,0.257,0.261,0.134,0.085,-,CALM,No
2019/07/17,20:30,0.180,0.163,0.272,0.255,0.262,0.135,0.084,-,CALM,No
2019/07/17,20:40,0.181,0.164,0.270,0.255,0.259,0.134,0.085,-,CALM,No
2019/07/17,20:50,0.179,0.163,0.271,0.257,0.264,0.136,0.085,west,0.7,No
2019/07/17,21:00,0.182,0.163,0.272,0.253,0.262,0.135,0.086,west-southwest,1.2,No
2019/07/17,21:10,0.180,0.163,0.270,0.256,0.260,0.135,0.086,southwest,0.7,No
2019/07/17,21:20,0.181,0.164,0.273,0.255,0.264,0.136,0.086,-,CALM,No
2019/07/17,21:30,0.181,0.165,0.270,0.255,0.260,0.134,0.085,-,CALM,No
2019/07/17,21:40,0.180,0.164,0.273,0.258,0.263,0.136,0.084,south,0.6,No
2019/07/17,21:50,0.181,0.165,0.271,0.254,0.260,0.135,0.086,south-southeast,0.7,No
2019/07/17,22:00,0.180,0.164,0.271,0.256,0.260,0.136,0.084,-,CALM,No
2019/07/17,22:10,0.181,0.164,0.273,0.255,0.262,0.135,0.086,-,CALM,No
2019/07/17,22:20,0.182,0.163,0.271,0.256,0.260,0.134,0.086,south-southeast,0.9,No
2019/07/17,22:30,0.181,0.163,0.274,0.257,0.263,0.136,0.085,south-southeast,1.0,No
2019/07/17,22:40,0.181,0.165,0.271,0.254,0.261,0.135,0.086,-,CALM,No
2019/07/17,22:50,0.181,0.164,0.272,0.258,0.260,0.136,0.085,-,CALM,No
2019/07/17,23:00,0.180,0.165,0.272,0.255,0.263,0.135,0.085,-,CALM,No
2019/07/17,23:10,0.183,0.163,0.271,0.256,0.260,0.135,0.086,-,CALM,No
2019/07/17,23:20,0.180,0.165,0.272,0.257,0.262,0.137,0.086,south-southeast,0.7,No
2019/07/17,23:30,0.182,0.164,0.271,0.255,0.262,0.135,0.086,-,CALM,No
2019/07/17,23:40,0.181,0.164,0.272,0.257,0.260,0.136,0.085,south,0.7,No
2019/07/17,23:50,0.180,0.165,0.272,0.256,0.263,0.136,0.085,south-southwest,1.0,No
